Torna al catalogo

STARLINK-32031

AttivoComunicazioniVLEO
NORAD 60142·PAYLOAD·🇺🇸 United States

Lanciato Jun 27, 2024 da Cape Canaveral Space Force Station

Loading…

Prossimi Passaggi (prossime 24 ore)

TLE

AggiornatoSource: CelesTrak SupGP

Epoca: Sep 14, 2026, 20:35 UTC

1 60142C 24120H   26257.85812500 -.00033065  00000+0 -97672-3 0  2572
2 60142  53.1567 157.7485 0001314  86.0438  79.6647 15.34413817    14

Traccia STARLINK-32031 in tempo reale con AllMySat

Download on the App Store